Location: Dallas
(32.7833°N, 96.8000°W)
Time: 00:25:06
(UTC-05:00)

Envisat - Pass Details

Date: 05 July 2022
Orbit: 763 x 765 km, 98.2° (Epoch: 11 August)

Event Time Altitude Azimuth Distance (km) Brightness Sun altitude
Rises 05:00:48 0° 28° (NNE) 3,233 7.6 -15.4°
Reaches altitude 10° 05:03:32 10° 42° (NE) 2,302 6.9 -14.9°
Maximum altitude 05:07:36 24° 96° (E) 1,535 5.1 -14.3°
Drops below altitude 10° 05:11:39 10° 149° (SSE) 2,290 5.4 -13.6°
Sets 05:14:21 0° 163° (SSE) 3,211 6.0 -13.2°
